User: anonymous   Login
Location: ROBOsky.com Wild Flower Ridge Observatory
(43.9736°N, 79.9739°W)
Time: 06:41:19
(UTC-05:00)
Language:

Cosmos 1190 Rocket - Orbit

View from above orbital plane
View from above orbital plane
View from above satellite
View from above satellite

Ground track
Ground track

The orbit data is extracted from the following two-line orbital elements,

1 11870U 80056B   15030.89780119  .00000257  00000-0  96001-4 0  9206
2 11870 074.0551 002.0420 0016151 175.4242 248.4705 14.36633638810112
Epoch (UTC): 30 January 2015 21:32:50
Eccentricity: 0.0016151
inclination: 74.0551°
perigee height: 758 km
apogee height: 781 km
right ascension of ascending node: 2.0420°
argument of perigee: 175.4242°
revolutions per day: 14.36633638
mean anomaly at epoch: 248.4705°
orbit number at epoch: 81011

The dashed part of the orbit path shows where the satellite is in the earth's shadow,  

DLR